When you browse on this site, cookies collect data to enhance your experience and personalize the content and advertising you see.
Visit our Privacy Policy to learn more. By continuing to use the site, you agree to this use of cookies and data.
  • Em Portugal
  • Lista de países
  • Para 7 dias
  • Temperatura da água
  • Mapas de satélite
  • Mapa do tempo
  • Widgets de tempo
  • user-avatar
    Iniciar Sessão

    Previsão horária em Bregenz

    Hoje, 20 Julho, Sábado

    Tempo Temperatura Precipitação Vento Pressão Humidade
    00:00 +12°C° 0 mm 1 m/s 648 mmHg 88%
    01:00 +12°C° 0 mm 1 m/s 648 mmHg 88%
    02:00 +12°C° 0 mm 2 m/s 648 mmHg 88%
    03:00 +10°C° 0 mm 2 m/s 648 mmHg 87%
    04:00 +10°C° 0 mm 2 m/s 648 mmHg 87%
    05:00 +12°C° 0 mm 2 m/s 648 mmHg 84%
    06:00 +14°C° 0 mm 2 m/s 648 mmHg 81%
    07:00 +15°C° 0 mm 2 m/s 649 mmHg 79%
    08:00 +18°C° 0 mm 1 m/s 650 mmHg 70%
    09:00 +21°C° 0 mm 1 m/s 650 mmHg 62%
    10:00 +23°C° 0 mm 1 m/s 651 mmHg 53%
    11:00 +24°C° 0.1 mm 1 m/s 651 mmHg 51%
    12:00 +24°C° 0.1 mm 1 m/s 651 mmHg 50%
    13:00 +25°C° 0.1 mm 1 m/s 651 mmHg 48%
    14:00 +25°C° 0.2 mm 1 m/s 651 mmHg 50%
    15:00 +24°C° 0.2 mm 1 m/s 651 mmHg 52%
    16:00 +24°C° 0.2 mm 1 m/s 651 mmHg 54%
    17:00 +23°C° 0.5 mm 1 m/s 651 mmHg 61%
    18:00 +22°C° 0.5 mm 1 m/s 651 mmHg 69%
    19:00 +20°C° 0.5 mm 1 m/s 651 mmHg 76%
    20:00 +19°C° 0.1 mm 1 m/s 651 mmHg 78%
    21:00 +16°C° 0.1 mm 1 m/s 651 mmHg 79%
    22:00 +15°C° 0.1 mm 1 m/s 651 mmHg 80%
    23:00 +15°C° 0.2 mm 1 m/s 651 mmHg 82%

    Amanhã, 21 Julho, Domingo

    Tempo Temperatura Precipitação Vento Pressão Humidade
    00:00 +14°C° 0.2 mm 1 m/s 651 mmHg 83%
    01:00 +14°C° 0.2 mm 2 m/s 651 mmHg 85%
    02:00 +14°C° 0.3 mm 1 m/s 651 mmHg 86%
    03:00 +13°C° 0.3 mm 1 m/s 650 mmHg 87%
    04:00 +13°C° 0.3 mm 1 m/s 650 mmHg 89%
    05:00 +14°C° 0.4 mm 1 m/s 651 mmHg 89%
    06:00 +14°C° 0.4 mm 1 m/s 651 mmHg 89%
    07:00 +15°C° 0.4 mm 1 m/s 652 mmHg 89%
    08:00 +16°C° 0.6 mm 1 m/s 652 mmHg 87%
    09:00 +18°C° 0.6 mm 1 m/s 653 mmHg 84%
    10:00 +19°C° 0.6 mm 1 m/s 653 mmHg 82%
    11:00 +20°C° 0.7 mm 1 m/s 653 mmHg 77%
    12:00 +20°C° 0.7 mm 2 m/s 654 mmHg 73%
    13:00 +21°C° 0.7 mm 2 m/s 654 mmHg 69%
    14:00 +21°C° 0.7 mm 1 m/s 654 mmHg 73%
    15:00 +21°C° 0.7 mm 1 m/s 654 mmHg 77%
    16:00 +21°C° 0.7 mm 1 m/s 654 mmHg 81%
    17:00 +20°C° 0.6 mm 1 m/s 654 mmHg 84%
    18:00 +19°C° 0.6 mm 1 m/s 654 mmHg 87%
    19:00 +19°C° 0.6 mm 1 m/s 654 mmHg 90%
    20:00 +16°C° 0.2 mm 1 m/s 654 mmHg 90%
    21:00 +15°C° 0.2 mm 1 m/s 654 mmHg 90%
    22:00 +14°C° 0.2 mm 1 m/s 654 mmHg 90%
    23:00 +14°C° 0 mm 1 m/s 653 mmHg 91%

    Depois de amanhã, 22 Julho, Segunda-feira

    Tempo Temperatura Precipitação Vento Pressão Humidade
    00:00 +13°C° 0 mm 1 m/s 653 mmHg 91%
    01:00 +13°C° 0 mm 1 m/s 653 mmHg 92%
    02:00 +13°C° 0 mm 1 m/s 653 mmHg 92%
    03:00 +12°C° 0 mm 1 m/s 653 mmHg 92%
    04:00 +12°C° 0 mm 1 m/s 653 mmHg 92%
    05:00 +12°C° 0 mm 0 m/s 653 mmHg 91%
    06:00 +13°C° 0 mm 0 m/s 654 mmHg 90%
    07:00 +14°C° 0 mm 0 m/s 654 mmHg 89%
    08:00 +16°C° 0 mm 0 m/s 654 mmHg 82%
    09:00 +20°C° 0 mm 1 m/s 655 mmHg 75%
    10:00 +21°C° 0 mm 1 m/s 656 mmHg 68%
    11:00 +22°C° 0 mm 1 m/s 656 mmHg 65%
    12:00 +23°C° 0 mm 1 m/s 656 mmHg 62%
    13:00 +24°C° 0 mm 1 m/s 656 mmHg 59%
    14:00 +24°C° 0 mm 2 m/s 656 mmHg 59%
    15:00 +24°C° 0 mm 2 m/s 655 mmHg 60%
    16:00 +24°C° 0 mm 2 m/s 655 mmHg 60%
    17:00 +23°C° 0 mm 2 m/s 655 mmHg 67%
    18:00 +21°C° 0 mm 1 m/s 655 mmHg 74%
    19:00 +20°C° 0 mm 1 m/s 654 mmHg 81%
    20:00 +19°C° 0 mm 1 m/s 654 mmHg 85%
    21:00 +16°C° 0 mm 1 m/s 654 mmHg 89%
    22:00 +15°C° 0 mm 1 m/s 654 mmHg 93%
    23:00 +14°C° 0 mm 1 m/s 653 mmHg 93%

    23 Julho, Terça-feira

    Tempo Temperatura Precipitação Vento Pressão Humidade
    00:00 +14°C° 0 mm 1 m/s 653 mmHg 94%
    01:00 +14°C° 0 mm 1 m/s 653 mmHg 94%
    02:00 +13°C° 0 mm 1 m/s 652 mmHg 94%
    03:00 +13°C° 0 mm 1 m/s 652 mmHg 94%
    04:00 +13°C° 0 mm 1 m/s 652 mmHg 95%
    05:00 +14°C° 0 mm 1 m/s 652 mmHg 92%
    06:00 +15°C° 0 mm 1 m/s 652 mmHg 89%
    07:00 +15°C° 0 mm 0 m/s 653 mmHg 87%
    08:00 +19°C° 0 mm 1 m/s 653 mmHg 79%
    09:00 +21°C° 0 mm 1 m/s 654 mmHg 72%
    10:00 +23°C° 0 mm 1 m/s 654 mmHg 64%
    11:00 +24°C° 0 mm 1 m/s 654 mmHg 60%
    12:00 +25°C° 0 mm 2 m/s 654 mmHg 56%
    13:00 +26°C° 0 mm 2 m/s 654 mmHg 52%
    14:00 +26°C° 0 mm 2 m/s 654 mmHg 52%
    15:00 +26°C° 0 mm 2 m/s 654 mmHg 53%
    16:00 +26°C° 0 mm 2 m/s 654 mmHg 53%
    17:00 +24°C° 0 mm 2 m/s 653 mmHg 61%
    18:00 +23°C° 0 mm 1 m/s 653 mmHg 70%
    19:00 +21°C° 0 mm 1 m/s 652 mmHg 78%
    20:00 +20°C° 0 mm 1 m/s 652 mmHg 81%
    21:00 +18°C° 0 mm 1 m/s 652 mmHg 85%
    22:00 +16°C° 0 mm 1 m/s 651 mmHg 88%
    23:00 +15°C° 0 mm 1 m/s 651 mmHg 88%

    24 Julho, Quarta-feira

    Tempo Temperatura Precipitação Vento Pressão Humidade
    00:00 +15°C° 0 mm 1 m/s 651 mmHg 88%
    01:00 +15°C° 0 mm 1 m/s 651 mmHg 88%
    02:00 +15°C° 0 mm 1 m/s 651 mmHg 89%
    03:00 +15°C° 0 mm 1 m/s 651 mmHg 89%
    04:00 +14°C° 0 mm 1 m/s 651 mmHg 89%
    05:00 +16°C° 0 mm 1 m/s 651 mmHg 86%
    06:00 +18°C° 0 mm 1 m/s 651 mmHg 83%
    07:00 +19°C° 0 mm 1 m/s 652 mmHg 80%
    08:00 +21°C° 0 mm 1 m/s 652 mmHg 73%
    09:00 +23°C° 0 mm 1 m/s 653 mmHg 66%
    10:00 +25°C° 0 mm 1 m/s 653 mmHg 58%
    11:00 +25°C° 0 mm 1 m/s 653 mmHg 56%
    12:00 +26°C° 0 mm 1 m/s 653 mmHg 53%
    13:00 +27°C° 0 mm 2 m/s 653 mmHg 51%
    14:00 +27°C° 0 mm 2 m/s 653 mmHg 51%
    15:00 +27°C° 0 mm 2 m/s 653 mmHg 52%
    16:00 +27°C° 0 mm 2 m/s 653 mmHg 52%
    17:00 +25°C° 0.1 mm 1 m/s 653 mmHg 60%
    18:00 +24°C° 0.1 mm 1 m/s 652 mmHg 67%
    19:00 +20°C° 0.1 mm 0 m/s 652 mmHg 75%
    20:00 +21°C° 0 mm 1 m/s 652 mmHg 76%
    21:00 +20°C° 0 mm 1 m/s 651 mmHg 78%
    22:00 +18°C° 0 mm 1 m/s 651 mmHg 79%
    23:00 +18°C° 0 mm 1 m/s 651 mmHg 79%

    25 Julho, Quinta-feira

    Tempo Temperatura Precipitação Vento Pressão Humidade
    00:00 +18°C° 0 mm 1 m/s 651 mmHg 80%
    01:00 +18°C° 0 mm 1 m/s 651 mmHg 80%
    02:00 +16°C° 0 mm 1 m/s 651 mmHg 81%
    03:00 +16°C° 0 mm 1 m/s 651 mmHg 81%
    04:00 +16°C° 0 mm 1 m/s 650 mmHg 82%
    05:00 +18°C° 0 mm 1 m/s 651 mmHg 81%
    06:00 +19°C° 0 mm 1 m/s 651 mmHg 79%
    07:00 +20°C° 0 mm 1 m/s 651 mmHg 78%
    08:00 +22°C° 0 mm 1 m/s 652 mmHg 71%
    09:00 +24°C° 0 mm 1 m/s 652 mmHg 64%
    10:00 +26°C° 0 mm 1 m/s 653 mmHg 58%
    11:00 +27°C° 0 mm 1 m/s 653 mmHg 56%
    12:00 +27°C° 0 mm 1 m/s 653 mmHg 54%
    13:00 +28°C° 0 mm 2 m/s 653 mmHg 51%
    14:00 +28°C° 0.4 mm 2 m/s 653 mmHg 55%
    15:00 +27°C° 0.4 mm 2 m/s 653 mmHg 58%
    16:00 +27°C° 0.4 mm 2 m/s 653 mmHg 62%
    17:00 +26°C° 0.8 mm 1 m/s 652 mmHg 70%
    18:00 +24°C° 0.8 mm 1 m/s 652 mmHg 77%
    19:00 +21°C° 0.8 mm 0 m/s 652 mmHg 85%
    20:00 +21°C° 0.2 mm 1 m/s 651 mmHg 87%
    21:00 +20°C° 0.2 mm 1 m/s 651 mmHg 88%
    22:00 +19°C° 0.2 mm 1 m/s 651 mmHg 89%
    23:00 +19°C° 0 mm 1 m/s 651 mmHg 89%
    Mostrar mais